Home   Weather   Leon   Past weeks

Flag for Mexico Past Weather in Leon, Guanajuato, Mexico — Yesterday and Last 2 Weeks

Now
64 °F

Partly cloudy.


Feels Like: 64 °F
Forecast: 60 / 77 °F
Wind: 6 mph from East

Location: Del Bajio / Leon

Current Time: Aug 18, 2017 at 12:10:08 am

Latest Report: Aug 17, 2017 at 10:43 pm


Visibility: 8 mi

Pressure: 30.38 "Hg (24.57 "Hg at 1808m altitude)

Humidity: 68%

Dew Point: 54 °F

Location of LeonLocation

Past Weather in Leon — Graph

°F

Leon Temperature Yesterday

Maximum temperature yesterday: 75 °F (at 12:49 pm)
Minimum temperature yesterday: 61 °F (at 3:45 am)
Average temperature yesterday: 68 °F

High & Low Weather Summary for the Past Weeks

 TemperatureHumidityPressure
High82 °F (Aug 11, 4:45 pm)100% (Aug 4, 5:46 am)30.41 "Hg (Aug 4, 5:46 am)
Low57 °F (Aug 9, 6:48 am)32% (Aug 9, 5:42 pm)29.72 "Hg (Aug 15, 6:45 pm)
Average70 °F67%30.15 "Hg
* Reported Aug 2 10:50 pm — Aug 17 10:43 pm, Leon. Weather by CustomWeather, © 2017

Note: Actual official high and low records may vary slightly from our data, if they occured in-between our weather recording intervals... More about our weather records

Advertising

Leon Weather History for the Previous 24 Hours

Scroll right to see more
 ConditionsComfort  
Time TempWeatherWind HumidityBarometerVisibility
10:43 pm
Thu, Aug 17
64 °FPartly cloudy.6 mph68%30.38 "Hg8 mi
9:43 pm64 °FPartly cloudy.6 mph78%29.99 "Hg8 mi
9:00 pm70 °FMostly cloudy.5 mph69%30.32 "Hg8 mi
7:44 pm72 °FMostly cloudy.3 mph57%30.29 "Hg10 mi
6:45 pm73 °FCloudy.7 mph61%29.89 "Hg10 mi
5:52 pm75 °FCloudy.6 mph57%30.27 "Hg10 mi
4:43 pm75 °FCloudy.10 mph57%30.29 "Hg10 mi
3:51 pm75 °FMostly cloudy.No wind54%29.93 "Hg10 mi
2:42 pm75 °FMostly cloudy.5 mph50%30.34 "Hg10 mi
1:48 pm75 °FPartly sunny.8 mph57%30.36 "Hg10 mi
12:49 pm75 °FPartly sunny.No wind61%29.96 "Hg10 mi
11:46 am72 °FPartly sunny.7 mph65%30.40 "Hg9 mi
10:41 am70 °FBroken clouds.No wind73%30.41 "Hg8 mi
9:46 am64 °FMore clouds than sun.No wind88%30.06 "Hg8 mi
8:49 am63 °FPartly sunny.No wind88%30.39 "Hg8 mi
7:40 am61 °FBroken clouds.No wind94%30.37 "Hg8 mi
6:45 am61 °FPartly cloudy.No wind88%30.01 "Hg8 mi
5:46 am61 °FPartly cloudy.No wind88%30.34 "Hg8 mi
4:47 am61 °FDrizzle. Mostly cloudy.5 mph94%30.33 "Hg8 mi
3:45 am61 °FPartly cloudy.5 mph94%29.93 "Hg8 mi
Weather by CustomWeather, © 2017

See weather overviewHow to use our weather pages